�������l�o���
Date,Time,MP-1(��Sv/h),MP-2(��Sv/h),MP-3(��Sv/h),MP-4(��Sv/h),MP-5(��Sv/h),MP-6(��Sv/h),MP-7(��Sv/h),MP-8(��Sv/h),����,����(m/s),���J
2020/11/02,00:00,0.672,0.968,0.610,1.188,0.859,0.386,0.673,0.636,��쐼,1.9,��
2020/11/02,00:10,0.672,0.968,0.610,1.187,0.858,0.386,0.675,0.637,��쐼,3.8,��
2020/11/02,00:20,0.672,0.970,0.610,1.188,0.858,0.387,0.673,0.636,�쐼,1.7,��
2020/11/02,00:30,0.670,0.971,0.609,1.187,0.857,0.387,0.674,0.634,�쐼,1.7,��
2020/11/02,00:40,0.671,0.969,0.610,1.190,0.857,0.386,0.673,0.635,��,2.0,��
2020/11/02,00:50,0.670,0.968,0.610,1.189,0.856,0.387,0.674,0.636,���쐼,1.5,��
2020/11/02,01:00,0.672,0.969,0.609,1.186,0.856,0.386,0.675,0.636,��,1.5,��
2020/11/02,01:10,0.672,0.969,0.611,1.188,0.857,0.386,0.673,0.636,�쐼,1.5,��
2020/11/02,01:20,0.673,0.968,0.610,1.189,0.857,0.385,0.673,0.636,���쐼,1.9,��
2020/11/02,01:30,0.670,0.968,0.611,1.188,0.859,0.386,0.673,0.635,��,1.4,��
2020/11/02,01:40,0.672,0.970,0.610,1.187,0.857,0.388,0.674,0.636,��쓌,3.1,��
2020/11/02,01:50,0.672,0.967,0.611,1.190,0.858,0.388,0.673,0.636,�쓌,1.9,��
2020/11/02,02:00,0.670,0.967,0.611,1.189,0.858,0.387,0.672,0.636,��쓌,2.6,��
2020/11/02,02:10,0.673,0.969,0.609,1.188,0.856,0.387,0.673,0.636,��,2.6,��
2020/11/02,02:20,0.671,0.968,0.611,1.187,0.855,0.388,0.674,0.637,��,3.3,��
2020/11/02,02:30,0.672,0.967,0.610,1.186,0.855,0.387,0.674,0.637,��쐼,4.1,��
2020/11/02,02:40,0.671,0.966,0.610,1.187,0.857,0.386,0.673,0.635,��쐼,3.9,��
2020/11/02,02:50,0.672,0.967,0.610,1.189,0.857,0.385,0.675,0.637,��,4.2,��
2020/11/02,03:00,0.673,0.965,0.611,1.188,0.857,0.385,0.673,0.635,��쐼,4.5,��
2020/11/02,03:10,0.673,0.966,0.609,1.187,0.856,0.386,0.674,0.636,��쐼,4.2,��
2020/11/02,03:20,0.672,0.968,0.609,1.189,0.857,0.388,0.672,0.636,��쐼,5.4,��
2020/11/02,03:30,0.672,0.968,0.610,1.189,0.856,0.387,0.673,0.635,��쐼,5.2,��
2020/11/02,03:40,0.672,0.967,0.609,1.187,0.857,0.387,0.674,0.635,��쐼,6.5,��
2020/11/02,03:50,0.671,0.969,0.611,1.189,0.857,0.386,0.675,0.637,��쐼,6.1,��
2020/11/02,04:00,0.672,0.968,0.610,1.189,0.857,0.385,0.675,0.636,��쐼,6.4,��
2020/11/02,04:10,0.671,0.968,0.610,1.189,0.857,0.386,0.675,0.637,��쐼,5.3,��
2020/11/02,04:20,0.672,0.970,0.612,1.187,0.857,0.387,0.675,0.635,��쐼,5.5,��
2020/11/02,04:30,0.673,0.968,0.611,1.186,0.858,0.385,0.677,0.635,��쐼,8.8,��
2020/11/02,04:40,0.671,0.967,0.610,1.187,0.856,0.385,0.676,0.636,��쐼,7.5,��
2020/11/02,04:50,0.672,0.970,0.611,1.187,0.858,0.386,0.674,0.636,��쐼,7.6,��
2020/11/02,05:00,0.673,0.970,0.610,1.188,0.854,0.386,0.675,0.636,��쐼,6.9,��
2020/11/02,05:10,0.673,0.969,0.612,1.187,0.855,0.385,0.674,0.637,��쐼,9.9,��
2020/11/02,05:20,0.674,0.966,0.612,1.189,0.856,0.386,0.674,0.638,��쐼,7.4,��
2020/11/02,05:30,0.674,0.967,0.612,1.187,0.856,0.385,0.674,0.635,��쐼,8.0,��
2020/11/02,05:40,0.674,0.968,0.610,1.187,0.855,0.386,0.675,0.637,��쐼,6.2,��
2020/11/02,05:50,0.672,0.969,0.611,1.189,0.856,0.386,0.674,0.636,��쐼,7.5,��
2020/11/02,06:00,0.674,0.966,0.611,1.189,0.855,0.385,0.676,0.634,��쐼,8.5,��
2020/11/02,06:10,0.674,0.968,0.612,1.188,0.854,0.386,0.674,0.637,��쐼,8.2,��
2020/11/02,06:20,0.673,0.969,0.611,1.188,0.854,0.388,0.674,0.635,��쐼,8.4,��
2020/11/02,06:30,0.673,0.966,0.611,1.187,0.856,0.385,0.673,0.636,��쐼,6.5,��
2020/11/02,06:40,0.671,0.965,0.610,1.188,0.855,0.387,0.675,0.635,��쐼,6.3,��
2020/11/02,06:50,0.674,0.968,0.613,1.189,0.857,0.387,0.674,0.636,��쐼,5.4,��
2020/11/02,07:00,0.673,0.968,0.611,1.187,0.857,0.385,0.674,0.637,��쐼,6.5,��
2020/11/02,07:10,0.669,0.968,0.610,1.189,0.857,0.385,0.676,0.635,��,6.6,��
2020/11/02,07:20,0.673,0.968,0.611,1.189,0.857,0.387,0.674,0.637,��,7.2,��
2020/11/02,07:30,0.673,0.970,0.611,1.188,0.857,0.386,0.674,0.637,��쐼,6.7,��
2020/11/02,07:40,0.673,0.970,0.612,1.187,0.856,0.385,0.675,0.636,�쐼,8.2,��
2020/11/02,07:50,0.674,0.967,0.609,1.189,0.858,0.385,0.673,0.636,�쐼,8.6,��
2020/11/02,08:00,0.673,0.967,0.611,1.186,0.859,0.385,0.675,0.637,��쐼,7.5,��
2020/11/02,08:10,0.673,0.966,0.611,1.189,0.856,0.384,0.674,0.636,��쐼,6.8,��
2020/11/02,08:20,0.670,0.964,0.611,1.188,0.857,0.384,0.674,0.635,��,6.6,��
2020/11/02,08:30,0.672,0.962,0.611,1.189,0.857,0.386,0.673,0.636,��쓌,7.4,��
2020/11/02,08:40,0.672,0.965,0.610,1.190,0.858,0.385,0.672,0.636,��쓌,7.3,��
2020/11/02,08:50,0.670,0.962,0.609,1.189,0.856,0.384,0.673,0.637,��,6.2,��
2020/11/02,09:00,0.672,0.964,0.612,1.191,0.857,0.384,0.672,0.635,��,4.6,��
2020/11/02,09:10,0.670,0.959,0.611,1.189,0.856,0.385,0.676,0.634,��쐼,2.9,��
2020/11/02,09:20,0.672,0.960,0.612,1.190,0.858,0.385,0.673,0.636,��쐼,4.1,��
2020/11/02,09:30,0.670,0.961,0.612,1.191,0.857,0.385,0.674,0.635,��,6.5,��
2020/11/02,09:40,0.670,0.960,0.611,1.189,0.859,0.386,0.673,0.635,��,5.1,��
2020/11/02,09:50,0.672,0.961,0.611,1.189,0.857,0.385,0.674,0.635,��,4.0,��
2020/11/02,10:00,0.671,0.960,0.610,1.189,0.856,0.384,0.675,0.634,��쐼,6.2,��
2020/11/02,10:10,0.672,0.958,0.610,1.190,0.855,0.385,0.677,0.635,��쐼,7.0,��
2020/11/02,10:20,0.673,0.962,0.609,1.189,0.857,0.385,0.676,0.634,��쐼,6.5,��
2020/11/02,10:30,0.671,0.961,0.609,1.189,0.855,0.386,0.675,0.633,��쐼,7.9,�L
2020/11/02,10:40,0.671,0.960,0.611,1.190,0.856,0.386,0.674,0.634,��쐼,7.6,�L
2020/11/02,10:50,0.671,0.961,0.609,1.190,0.856,0.384,0.675,0.634,��쐼,6.6,�L
2020/11/02,11:00,0.672,0.964,0.609,1.192,0.855,0.385,0.675,0.634,��쐼,7.1,�L
2020/11/02,11:10,0.673,0.961,0.611,1.191,0.857,0.385,0.675,0.633,��쐼,6.7,��
2020/11/02,11:20,0.671,0.962,0.612,1.188,0.856,0.386,0.675,0.634,��쐼,6.0,��
2020/11/02,11:30,0.672,0.964,0.612,1.189,0.856,0.385,0.675,0.634,�쐼,5.6,��
2020/11/02,11:40,0.670,0.963,0.612,1.190,0.858,0.386,0.674,0.634,��쐼,5.4,��
2020/11/02,11:50,0.672,0.965,0.612,1.190,0.858,0.385,0.675,0.635,�쐼,4.8,�L
2020/11/02,12:00,0.673,0.965,0.612,1.191,0.857,0.385,0.675,0.634,�쐼,6.0,�L
2020/11/02,12:10,0.673,0.966,0.613,1.192,0.855,0.386,0.675,0.635,��쐼,7.2,�L
2020/11/02,12:20,0.674,0.965,0.610,1.191,0.859,0.386,0.676,0.635,��쐼,5.8,�L
2020/11/02,12:30,0.674,0.965,0.612,1.189,0.859,0.385,0.675,0.635,��,6.5,�L
2020/11/02,12:40,0.673,0.965,0.612,1.191,0.859,0.387,0.674,0.635,��쐼,6.2,�L
2020/11/02,12:50,0.673,0.962,0.614,1.193,0.858,0.386,0.675,0.635,��쐼,5.8,�L
2020/11/02,13:00,0.673,0.963,0.614,1.190,0.860,0.386,0.674,0.634,�쐼,4.8,�L
2020/11/02,13:10,0.673,0.962,0.612,1.190,0.860,0.386,0.672,0.636,��쐼,4.0,�L
2020/11/02,13:20,0.675,0.967,0.612,1.191,0.861,0.386,0.675,0.635,��쐼,4.9,�L
2020/11/02,13:30,0.674,0.966,0.614,1.189,0.862,0.388,0.673,0.637,�쐼,4.0,�L
2020/11/02,13:40,0.674,0.965,0.612,1.190,0.859,0.387,0.674,0.635,�쐼,5.1,�L
2020/11/02,13:50,0.673,0.969,0.611,1.191,0.859,0.386,0.675,0.637,�쐼,5.1,�L
2020/11/02,14:00,0.674,0.968,0.613,1.193,0.860,0.387,0.676,0.637,��쐼,5.2,�L
2020/11/02,14:10,0.675,0.966,0.612,1.190,0.859,0.386,0.676,0.639,��쐼,4.2,�L
2020/11/02,14:20,0.672,0.966,0.612,1.190,0.858,0.386,0.674,0.637,��쐼,2.8,�L
2020/11/02,14:30,0.671,0.964,0.612,1.188,0.859,0.387,0.674,0.634,�쐼,2.9,�L
2020/11/02,14:40,0.674,0.964,0.611,1.190,0.857,0.387,0.675,0.635,�쐼,3.6,�L
2020/11/02,14:50,0.674,0.963,0.612,1.191,0.857,0.389,0.674,0.635,���쐼,4.0,�L
2020/11/02,15:00,0.674,0.961,0.613,1.190,0.856,0.388,0.674,0.635,���쐼,4.3,�L
2020/11/02,15:10,0.672,0.963,0.611,1.190,0.856,0.389,0.673,0.635,���쐼,4.2,�L
2020/11/02,15:20,0.672,0.961,0.613,1.188,0.857,0.389,0.676,0.635,���쐼,3.5,�L
2020/11/02,15:30,0.670,0.958,0.609,1.189,0.855,0.387,0.673,0.633,�쐼,3.9,�L
2020/11/02,15:40,0.671,0.961,0.609,1.191,0.853,0.389,0.673,0.632,���쐼,5.0,�L
2020/11/02,15:50,0.670,0.960,0.610,1.190,0.855,0.387,0.673,0.633,���쐼,5.1,�L
2020/11/02,16:00,0.670,0.961,0.610,1.188,0.853,0.389,0.672,0.633,�쐼,4.0,�L
2020/11/02,16:10,0.668,0.959,0.610,1.188,0.855,0.389,0.671,0.636,�쐼,3.0,�L
2020/11/02,16:20,0.669,0.957,0.610,1.188,0.853,0.389,0.673,0.634,��쐼,4.5,�L
2020/11/02,16:30,0.669,0.958,0.610,1.187,0.854,0.388,0.675,0.634,��쐼,4.2,�L
2020/11/02,16:40,0.667,0.958,0.609,1.188,0.852,0.388,0.673,0.635,��쐼,3.4,�L
2020/11/02,16:50,0.670,0.956,0.610,1.186,0.853,0.388,0.673,0.636,�쐼,2.6,�L
2020/11/02,17:00,0.669,0.956,0.610,1.187,0.852,0.387,0.670,0.634,���k��,1.5,�L
2020/11/02,17:10,0.667,0.956,0.609,1.185,0.849,0.389,0.671,0.634,�k��,2.2,�L
2020/11/02,17:20,0.667,0.954,0.607,1.187,0.848,0.388,0.672,0.633,�k��,1.2,�L
2020/11/02,17:30,0.668,0.953,0.608,1.184,0.848,0.388,0.670,0.630,��,1.2,�L
2020/11/02,17:40,0.667,0.953,0.607,1.185,0.850,0.387,0.671,0.633,-,CALM,�L
2020/11/02,17:50,0.666,0.952,0.608,1.184,0.847,0.387,0.671,0.632,��,1.4,��
2020/11/02,18:00,0.665,0.952,0.606,1.182,0.848,0.386,0.671,0.632,��,0.6,��
2020/11/02,18:10,0.663,0.951,0.606,1.183,0.848,0.387,0.670,0.632,���k��,0.6,�L
2020/11/02,18:20,0.664,0.950,0.605,1.182,0.847,0.386,0.670,0.633,-,CALM,�L
2020/11/02,18:30,0.663,0.952,0.606,1.182,0.848,0.385,0.671,0.633,���쓌,1.1,�L
2020/11/02,18:40,0.662,0.951,0.605,1.182,0.846,0.385,0.671,0.632,�쓌,2.2,�L
2020/11/02,18:50,0.663,0.951,0.605,1.181,0.846,0.386,0.670,0.632,��쓌,3.1,�L
2020/11/02,19:00,0.663,0.951,0.605,1.181,0.846,0.385,0.670,0.632,��,3.0,�L
2020/11/02,19:10,0.663,0.951,0.604,1.181,0.845,0.385,0.674,0.632,��쓌,3.9,�L
2020/11/02,19:20,0.662,0.949,0.604,1.180,0.846,0.386,0.671,0.631,��쓌,3.9,�L
2020/11/02,19:30,0.661,0.951,0.605,1.181,0.846,0.385,0.673,0.632,��쓌,4.9,�L
2020/11/02,19:40,0.662,0.950,0.606,1.182,0.845,0.387,0.672,0.633,��쓌,5.1,�L
2020/11/02,19:50,0.663,0.950,0.606,1.182,0.847,0.385,0.672,0.634,��,4.4,�L
2020/11/02,20:00,0.662,0.950,0.605,1.180,0.848,0.386,0.671,0.634,��,4.4,�L
2020/11/02,20:10,0.662,0.950,0.607,1.181,0.845,0.387,0.672,0.633,��,4.5,�L
2020/11/02,20:20,0.663,0.949,0.606,1.181,0.847,0.387,0.670,0.631,��,4.3,�L
2020/11/02,20:30,0.662,0.948,0.607,1.183,0.846,0.387,0.671,0.633,��,4.5,�L
2020/11/02,20:40,0.661,0.946,0.606,1.183,0.844,0.388,0.670,0.632,��,4.9,�L
2020/11/02,20:50,0.662,0.947,0.605,1.180,0.843,0.388,0.670,0.631,��,4.9,�L
2020/11/02,21:00,0.663,0.942,0.606,1.179,0.842,0.387,0.667,0.630,��,4.7,�L
2020/11/02,21:10,0.659,0.945,0.603,1.178,0.839,0.387,0.669,0.629,��,4.6,�L
2020/11/02,21:20,0.661,0.942,0.605,1.176,0.841,0.386,0.669,0.631,��,4.3,�L
2020/11/02,21:30,0.659,0.944,0.604,1.174,0.843,0.386,0.668,0.629,��,3.9,�L
2020/11/02,21:40,0.662,0.940,0.604,1.175,0.841,0.387,0.670,0.630,��쐼,2.9,�L
2020/11/02,21:50,0.660,0.942,0.603,1.174,0.839,0.387,0.669,0.629,��쐼,2.0,�L
2020/11/02,22:00,0.660,0.940,0.602,1.176,0.837,0.385,0.668,0.630,���쐼,1.2,�L
2020/11/02,22:10,0.659,0.938,0.603,1.173,0.839,0.386,0.668,0.630,��,0.9,�L
2020/11/02,22:20,0.658,0.940,0.602,1.173,0.839,0.386,0.668,0.630,-,CALM,�L
2020/11/02,22:30,0.658,0.939,0.603,1.172,0.836,0.387,0.667,0.628,�k�k��,0.6,�L
2020/11/02,22:40,0.658,0.939,0.603,1.171,0.838,0.388,0.666,0.630,-,CALM,�L
2020/11/02,22:50,0.658,0.938,0.603,1.172,0.837,0.386,0.667,0.629,�k�k��,1.2,�L
2020/11/02,23:00,0.657,0.940,0.601,1.169,0.836,0.385,0.666,0.627,-,CALM,�L
2020/11/02,23:10,0.656,0.937,0.600,1.169,0.835,0.386,0.668,0.630,�k�k��,1.5,�L
2020/11/02,23:20,0.657,0.936,0.601,1.169,0.837,0.386,0.668,0.630,�k��,4.4,�L
2020/11/02,23:30,0.657,0.938,0.599,1.167,0.835,0.386,0.668,0.628,���k��,4.8,�L
2020/11/02,23:40,0.655,0.937,0.600,1.169,0.834,0.386,0.667,0.630,�k��,3.9,�L
2020/11/02,23:50,0.655,0.937,0.600,1.168,0.832,0.384,0.668,0.629,�k�k��,1.9,�L
